{"data":{"norad_id":63050,"epoch":"2026-09-21T21:25:10.851744Z","epoch_age_seconds":44848,"freshness":"FRESH","line1":"1 63050U 25034X   26264.89248671  .00003692  00000+0  12039-3 0  9990","line2":"2 63050  53.1594  75.4986 0001232  85.0635 275.0508 15.34392461 89009","mean_motion":15.34392461,"eccentricity":0.0001232,"inclination_deg":53.1594,"raan_deg":75.4986,"arg_perigee_deg":85.0635,"mean_anomaly_deg":275.0508,"bstar":0.00012039,"rev_number":8900,"period_min":93.848219187777,"perigee_km":461.88285351742,"apogee_km":463.56844207383,"semimajor_km":6840.8626477956,"source":"CELESTRAK","updated_at":"2026-09-22T09:00:49.748490Z"}}